EW4281 Weather Reports


time (UTC)temp
F
wind
direction
speed
knots
gust
knots
rain 1hr
in
rain 24hr
in
rain mn
in
humidity
%
barometer
mb
20260508014142 67 201 0.9 5.2 0.00 0.00 0.00 12 1009.9
20260508013153 68 218 1.7 6.1 0.00 0.00 0.00 11 1009.9
20260508012211 69 231 1.7 7.0 0.00 0.00 0.00 12 1009.9
20260508011139 70 142 1.7 7.0 0.00 0.00 0.00 11 1009.8
20260508010154 71 229 0.0 6.1 0.00 0.00 0.00 11 1009.9
20260508005211 71 234 0.9 6.1 0.00 0.00 0.00 11 1009.9
20260508004142 72 186 0.0 3.5 0.00 0.00 0.00 11 1010.0
20260508002012 72 214 0.9 6.1 0.00 0.00 0.00 13 1010.2
20260508001028 72 221 0.9 5.2 0.00 0.00 0.00 12 1010.3
20260508000025 72 238 0.9 5.2 0.00 0.00 0.00 13 1010.3
20260507235017 73 278 0.9 6.1 0.00 0.00 0.00 14 1010.3
20260507234038 72 256 1.7 7.0 0.00 0.00 0.00 15 1010.4
20260507233029 72 179 0.9 7.0 0.00 0.00 0.00 16 1010.4
20260507230931 71 309 0.0 2.6 0.00 0.00 0.00 18 1010.6
20260507225909 69 157 0.0 0.0 0.00 0.00 0.00 18 1010.8
20260507224841 69 68 0.0 5.2 0.00 0.00 0.00 17 1010.9
20260507223836 69 291 0.0 7.8 0.00 0.00 0.00 17 1011.1
20260507221713 68 319 0.9 5.2 0.00 0.00 0.00 17 1011.5
20260507220730 68 46 0.9 7.0 0.00 0.00 0.00 16 1011.7
20260507215741 68 340 1.7 7.8 0.00 0.00 0.00 16 1012.0
20260507214754 68 306 0.9 7.8 0.00 0.00 0.00 16 1012.2
20260507213801 69 49 0.9 5.2 0.00 0.00 0.00 17 1012.4
20260507212813 68 283 0.9 6.1 0.00 0.00 0.00 16 1012.7
20260507211830 69 352 1.7 6.1 0.00 0.00 0.00 16 1012.8
20260507205735 69 79 0.0 6.1 0.00 0.00 0.00 13 1013.2
20260507204744 68 0 0.9 7.0 0.00 0.00 0.00 12 1013.5
20260507202612 68 58 0.0 7.0 0.00 0.00 0.00 12 1013.8
20260507200459 67 336 1.7 6.1 0.00 0.00 0.00 13 1014.1
20260507195500 67 7 0.9 8.7 0.00 0.00 0.00 11 1014.2
20260507194459 66 293 0.9 8.7 0.00 0.00 0.00 12 1014.3
20260507192257 67 60 0.0 4.3 0.00 0.00 0.00 14 1014.6
20260507191259 64 52 1.7 9.6 0.00 0.00 0.00 14 1014.7
20260507190320 63 344 1.7 9.6 0.00 0.00 0.00 15 1014.8
20260507185250 62 311 2.6 8.7 0.00 0.00 0.00 16 1015.0
20260507183133 61 46 1.7 10.4 0.00 0.00 0.00 19 1015.2
20260507181029 60 318 1.7 8.7 0.00 0.00 0.00 20 1015.4
20260507180010 59 42 1.7 9.6 0.00 0.00 0.00 25 1015.6
20260507175028 58 314 1.7 11.3 0.00 0.00 0.00 27 1015.9
20260507174030 58 300 1.7 11.3 0.00 0.00 0.00 28 1016.0
20260507173018 58 8 0.9 7.8 0.00 0.00 0.00 32 1016.2
20260507171957 57 293 0.9 7.8 0.00 0.00 0.00 31 1016.4
20260507171000 56 285 0.9 9.6 0.00 0.00 0.00 35 1016.6
20260507165928 54 343 1.7 9.6 0.00 0.00 0.00 37 1016.7
20260507164945 55 312 0.0 7.0 0.00 0.00 0.00 40 1016.8
20260507164010 53 162 0.9 7.0 0.00 0.00 0.00 43 1017.0
20260507162950 52 312 0.9 8.7 0.00 0.00 0.00 45 1017.0
20260507161939 51 11 0.0 7.0 0.00 0.00 0.00 48 1017.2
20260507154638 48 348 0.0 5.2 0.00 0.00 0.00 53 1017.6
20260507153639 48 75 0.0 2.6 0.00 0.00 0.00 54 1017.7
20260507152638 47 70 0.0 0.9 0.00 0.00 0.00 57 1017.7
20260507151648 46 294 0.0 3.5 0.00 0.00 0.00 59 1017.8
20260507150646 44 330 0.0 3.5 0.00 0.00 0.00 59 1017.7
20260507145643 43 318 0.0 2.6 0.00 0.00 0.00 62 1017.7
20260507143507 44 47 0.0 1.7 0.00 0.00 0.00 63 1017.9
20260507142527 43 336 0.0 1.7 0.00 0.00 0.00 65 1018.0
20260507141524 42 326 0.0 0.0 0.00 0.00 0.00 71 1018.2
20260507140454 39 28 0.0 0.0 0.00 0.00 0.00 77 1018.3
20260507135434 38 310 0.0 0.9 0.00 0.00 0.00 75 1018.2
20260507133332 38 268 0.0 0.0 0.00 0.00 0.00 76 1017.7
20260507132353 38 120 0.0 0.0 0.00 0.00 0.00 75 1017.6
20260507131337 38 120 0.0 0.0 0.00 0.00 0.00 76 1017.3
20260507130330 38 120 0.0 0.0 0.00 0.00 0.00 78 1017.2
20260507125339 35 120 0.0 0.0 0.00 0.00 0.00 82 1016.9
20260507114419 32 158 0.0 0.0 0.00 0.00 0.00 86 1015.6
20260507113430 33 158 0.0 0.0 0.00 0.00 0.00 85 1015.7
20260507111207 32 158 0.0 0.0 0.00 0.00 0.00 85 1015.4
20260507110208 33 158 0.0 0.0 0.00 0.00 0.00 84 1015.3
20260507105157 33 158 0.0 0.0 0.00 0.00 0.00 83 1015.3
20260507104124 33 158 0.0 0.0 0.00 0.00 0.00 82 1015.3
20260507103133 34 158 0.0 0.0 0.00 0.00 0.00 81 1015.4
20260507102105 34 158 0.0 0.0 0.00 0.00 0.00 80 1015.4
20260507101117 34 163 0.0 0.0 0.00 0.00 0.00 79 1015.4
20260507095018 33 146 0.0 0.0 0.00 0.00 0.00 80 1015.3
20260507094043 33 146 0.0 0.0 0.00 0.00 0.00 78 1015.4
20260507093014 34 146 0.0 0.0 0.00 0.00 0.00 78 1015.2
20260507090834 33 146 0.0 0.0 0.00 0.00 0.00 84 1015.2
20260507085847 33 146 0.0 0.0 0.00 0.00 0.00 84 1015.1
20260507084832 34 146 0.0 0.0 0.00 0.00 0.00 85 1014.9
20260507083854 34 146 0.0 0.0 0.00 0.00 0.00 84 1014.9
20260507082841 34 146 0.0 0.0 0.00 0.00 0.00 83 1014.7
20260507081835 34 146 0.0 0.0 0.00 0.00 0.00 81 1014.8
20260507080817 35 146 0.0 0.0 0.00 0.00 0.00 81 1014.6
20260507074728 36 322 0.0 0.0 0.00 0.00 0.00 78 1014.5
20260507073721 36 323 0.0 0.0 0.00 0.00 0.00 78 1014.5
20260507072647 37 323 0.0 0.0 0.00 0.00 0.00 77 1014.4
20260507070440 36 323 0.0 0.0 0.00 0.00 0.00 80 1014.2
20260507064251 36 323 0.0 0.0 0.00 0.00 0.00 81 1014.2
20260507063259 36 323 0.0 0.0 0.00 0.00 0.00 80 1013.9
20260507062259 36 323 0.0 0.0 0.00 0.00 0.00 80 1013.9
20260507061308 36 323 0.0 0.0 0.00 0.00 0.00 79 1013.9
20260507060317 37 323 0.0 0.0 0.00 0.00 0.00 78 1013.8
20260507055258 37 323 0.0 0.0 0.00 0.00 0.00 78 1013.7
20260507053158 38 323 0.0 0.0 0.00 0.00 0.00 76 1013.5
20260507052216 38 323 0.0 0.0 0.00 0.00 0.00 73 1013.4
20260507051223 38 323 0.0 0.0 0.00 0.00 0.00 74 1013.4
20260507050229 38 323 0.0 0.0 0.00 0.00 0.00 71 1013.4
20260507045220 39 323 0.0 0.0 0.00 0.01 0.00 67 1013.3
20260507044218 40 321 0.0 0.0 0.00 0.01 0.00 64 1013.2
20260507042013 42 65 0.0 0.0 0.00 0.01 0.00 60 1012.8
20260507041013 43 65 0.0 0.0 0.00 0.01 0.00 58 1012.6
20260507040011 43 279 0.0 0.0 0.00 0.01 0.00 55 1012.4
20260507035018 44 279 0.0 0.0 0.00 0.01 0.00 54 1012.2
20260507033952 45 279 0.0 0.0 0.00 0.01 0.00 51 1012.1
20260507032938 44 211 0.0 0.0 0.00 0.01 0.00 51 1012.0
20260507031905 45 211 0.0 0.0 0.00 0.02 0.00 50 1011.6
20260507025749 47 202 0.0 0.0 0.00 0.08 0.00 46 1011.0
20260507024718 48 269 0.0 0.0 0.00 0.11 0.00 45 1010.6
20260507023659 48 186 0.0 2.6 0.00 0.11 0.00 44 1010.3
20260507022631 48 236 0.0 0.9 0.00 0.11 0.00 43 1010.1
20260507021607 49 240 0.0 0.0 0.00 0.11 0.00 42 1009.7
20260507015458 52 271 0.0 5.2 0.00 0.12 0.00 38 1009.5